Centralia, IL

12:33 AM CST on December 04, 2016 (GMT -0600)
Centralia Municipal

Weather History for KENL - September, 2014

Change the Weather History Date:

Wednesday, September 10, 2014

  Actual Average (KSLO) Record (KSLO)
Temperature  
Mean Temperature 78 °F -  
Max Temperature 84 °F 82 °F 98 °F (1983)
Min Temperature 71 °F 58 °F 43 °F (1976)
Cooling Degree Days 12    
Growing Degree Days 28 (Base 50)    
Moisture  
Dew Point 69 °F    
Average Humidity 77    
Maximum Humidity 93    
Minimum Humidity 63    
Precipitation  
Precipitation 0.79 in - - ()
Sea Level Pressure  
Sea Level Pressure 29.78 in    
Wind  
Wind Speed 11 mph (SSW)    
Max Wind Speed 24 mph    
Max Gust Speed 30 mph    
Visibility 9 miles    
Events Rain    
Averages and records for this station are not official NWS values.
T = Trace of Precipitation, MM = Missing Value Source: NWS Daily Summary

Daily Weather History Graph

Daily Weather History Graph

Search for Another Location

Airport or City:

Trip Planner

Search our weather history database for the weather conditions in past years. The results will help you decide how hot, cold, wet, or windy it might be!

Date:

Astronomy

Sep. 10, 2014 Rise Set
Actual Time 6:33 AM CDT 7:12 PM CDT
Civil Twilight 6:06 AM CDT 7:39 PM CDT
Nautical Twilight 5:35 AM CDT 8:10 PM CDT
Astronomical Twilight 5:02 AM CDT 8:42 PM CDT
Moon 8:13 PM CDT (9/10) 8:19 AM CDT (9/10)
Length of Visible Light 13h 32m
Length of Day
12h 38m
Waning Gibbous, 96% of the Moon is Illuminated
Sep 10
Waning Gibbous
Sep 15
Last Quarter
Sep 24
New
Oct 1
First Quarter
Oct 8
Full

Hourly Weather History & Observations

Time (CDT) Temp. Heat Index Dew Point Humidity Pressure Visibility Wind Dir Wind Speed Gust Speed Precip Events Conditions
12:10 AM 73.8 °F - 64.6 °F 73% 29.85 in 10.0 mi SSE 8.1 mph - N/A   Clear
12:30 AM 73.9 °F - 64.6 °F 72% 29.84 in 10.0 mi SSE 9.2 mph - N/A   Clear
12:50 AM 74.3 °F - 64.6 °F 72% 29.84 in 10.0 mi SSE 9.2 mph - N/A   Clear
1:10 AM 74.5 °F - 64.6 °F 71% 29.82 in 10.0 mi SSE 11.5 mph - N/A   Clear
1:30 AM 74.3 °F - 64.8 °F 72% 29.82 in 10.0 mi SSE 10.4 mph - N/A   Clear
1:50 AM 74.3 °F - 64.9 °F 72% 29.81 in 10.0 mi SSE 10.4 mph 17.3 mph N/A   Clear
2:10 AM 74.1 °F - 65.1 °F 73% 29.80 in 10.0 mi South 10.4 mph - N/A   Clear
2:30 AM 73.9 °F - 65.1 °F 74% 29.80 in 10.0 mi SSE 10.4 mph 16.1 mph N/A   Clear
2:50 AM 73.8 °F - 65.1 °F 74% 29.80 in 10.0 mi South 9.2 mph - N/A   Clear
3:10 AM 73.6 °F - 65.3 °F 75% 29.80 in 10.0 mi South 9.2 mph - N/A   Clear
3:30 AM 73.8 °F - 65.3 °F 75% 29.79 in 10.0 mi South 10.4 mph - N/A   Clear
3:50 AM 74.1 °F - 65.3 °F 74% 29.78 in 10.0 mi SSE 8.1 mph - N/A   Clear
4:10 AM 74.3 °F - 65.5 °F 74% 29.78 in 10.0 mi SSE 9.2 mph - N/A   Clear
4:30 AM 74.3 °F - 65.7 °F 74% 29.78 in 10.0 mi South 11.5 mph - N/A   Clear
4:50 AM 74.5 °F - 66.2 °F 75% 29.78 in 10.0 mi South 10.4 mph - N/A Rain Light Rain
5:10 AM 74.7 °F - 66.9 °F 77% 29.77 in 10.0 mi South 9.2 mph - N/A   Clear
5:30 AM 75.2 °F - 67.1 °F 76% 29.76 in 10.0 mi South 11.5 mph - N/A   Clear
5:50 AM 75.0 °F - 67.3 °F 77% 29.76 in 10.0 mi South 11.5 mph 17.3 mph N/A   Clear
6:10 AM 74.8 °F - 67.5 °F 78% 29.75 in 10.0 mi South 11.5 mph 17.3 mph N/A   Clear
6:30 AM 75.2 °F - 68.0 °F 78% 29.76 in 10.0 mi South 12.7 mph 16.1 mph N/A   Clear
6:50 AM 74.8 °F - 68.0 °F 79% 29.76 in 10.0 mi South 9.2 mph 17.3 mph N/A   Clear
7:10 AM 75.2 °F - 68.2 °F 79% 29.77 in 10.0 mi South 13.8 mph 18.4 mph N/A   Clear
7:30 AM 75.2 °F - 68.5 °F 80% 29.77 in 10.0 mi South 11.5 mph - N/A   Clear
7:50 AM 75.9 °F - 68.9 °F 79% 29.77 in 10.0 mi South 10.4 mph 16.1 mph N/A   Clear
8:10 AM 76.6 °F - 69.4 °F 78% 29.79 in 10.0 mi SSW 10.4 mph 18.4 mph N/A   Clear
8:30 AM 77.0 °F - 69.8 °F 78% 29.79 in 10.0 mi South 12.7 mph 19.6 mph N/A   Clear
8:50 AM 77.5 °F - 70.0 °F 77% 29.79 in 10.0 mi SSW 12.7 mph 17.3 mph N/A   Scattered Clouds
9:10 AM 78.4 °F - 70.3 °F 76% 29.79 in 10.0 mi SSW 12.7 mph 19.6 mph N/A   Mostly Cloudy
9:30 AM 78.8 °F - 70.2 °F 75% 29.79 in 10.0 mi SSW 16.1 mph 23.0 mph N/A   Mostly Cloudy
9:50 AM 79.0 °F - 70.3 °F 75% 29.79 in 10.0 mi SSW 12.7 mph 23.0 mph N/A   Scattered Clouds
10:10 AM 78.3 °F - 70.3 °F 77% 29.79 in 10.0 mi SSW 15.0 mph 23.0 mph N/A   Scattered Clouds
10:30 AM 77.0 °F - 71.2 °F 82% 29.78 in 7.0 mi SSW 12.7 mph 18.4 mph N/A Rain Light Rain
10:50 AM 77.5 °F - 72.0 °F 83% 29.78 in 7.0 mi SSW 12.7 mph 20.7 mph 0.01 in Rain Light Rain
11:10 AM 77.0 °F - 72.0 °F 84% 29.78 in 5.0 mi SSW 11.5 mph - N/A Rain Light Rain
11:30 AM 77.5 °F - 72.5 °F 84% 29.78 in 7.0 mi SSW 13.8 mph 18.4 mph N/A Rain Light Rain
12:10 PM 79.7 °F - 73.6 °F 81% 29.78 in 7.0 mi SSW 13.8 mph 19.6 mph N/A   Clear
12:30 PM 79.5 °F - 72.9 °F 80% 29.77 in 7.0 mi SSW 16.1 mph 21.9 mph N/A Rain Light Rain
12:50 PM 80.8 °F 85.4 °F 73.0 °F 77% 29.76 in 10.0 mi SSW 20.7 mph 25.3 mph N/A   Clear
1:10 PM 81.7 °F 86.7 °F 72.7 °F 74% 29.75 in 10.0 mi SSW 17.3 mph 25.3 mph N/A   Clear
1:30 PM 82.0 °F 86.7 °F 71.6 °F 71% 29.75 in 10.0 mi SSW 17.3 mph 29.9 mph N/A   Clear
1:50 PM 82.2 °F 86.9 °F 71.6 °F 70% 29.76 in 10.0 mi SSW 19.6 mph 28.8 mph N/A   Scattered Clouds
2:10 PM 83.8 °F 89.2 °F 71.8 °F 67% 29.74 in 10.0 mi SSW 18.4 mph 27.6 mph N/A   Scattered Clouds
2:30 PM 84.6 °F 89.4 °F 70.9 °F 63% 29.75 in 10.0 mi SSW 24.2 mph 29.9 mph N/A   Clear
2:50 PM 83.3 °F 88.2 °F 71.2 °F 67% 29.74 in 10.0 mi SSW 13.8 mph 21.9 mph N/A   Clear
3:10 PM 82.8 °F 87.4 °F 71.1 °F 68% 29.73 in 10.0 mi SSW 13.8 mph 25.3 mph N/A   Scattered Clouds
3:30 PM 83.3 °F 87.9 °F 70.9 °F 66% 29.73 in 10.0 mi SSW 15.0 mph 21.9 mph N/A   Scattered Clouds
3:50 PM 82.6 °F 87.3 °F 71.6 °F 69% 29.74 in 10.0 mi SSW 15.0 mph 24.2 mph N/A   Scattered Clouds
4:10 PM 83.8 °F 89.2 °F 71.8 °F 67% 29.73 in 10.0 mi SSW 16.1 mph 21.9 mph N/A   Clear
4:30 PM 82.8 °F 87.9 °F 72.0 °F 70% 29.73 in 10.0 mi SSW 12.7 mph 21.9 mph N/A   Scattered Clouds
4:50 PM 83.7 °F 89.4 °F 72.5 °F 69% 29.73 in 10.0 mi SSW 11.5 mph 17.3 mph N/A   Scattered Clouds
5:10 PM 84.2 °F 89.9 °F 72.1 °F 67% 29.73 in 10.0 mi SSW 12.7 mph 21.9 mph N/A   Scattered Clouds
5:30 PM 82.8 °F 87.9 °F 72.1 °F 70% 29.72 in 10.0 mi SSW 9.2 mph 18.4 mph N/A   Mostly Cloudy
5:50 PM 81.9 °F 86.6 °F 72.1 °F 72% 29.72 in 10.0 mi SSW 11.5 mph - N/A   Mostly Cloudy
6:10 PM 81.9 °F 86.8 °F 72.3 °F 73% 29.71 in 10.0 mi SSW 11.5 mph 17.3 mph N/A   Scattered Clouds
6:30 PM 81.5 °F 86.1 °F 72.1 °F 73% 29.71 in 10.0 mi SSW 9.2 mph 16.1 mph N/A   Mostly Cloudy
6:50 PM 81.3 °F 85.6 °F 71.6 °F 72% 29.70 in 10.0 mi SSW 12.7 mph - N/A   Mostly Cloudy
7:10 PM 80.8 °F 84.6 °F 70.9 °F 72% 29.72 in 10.0 mi SSW 12.7 mph 23.0 mph N/A   Mostly Cloudy
7:30 PM 79.5 °F - 70.7 °F 74% 29.73 in 10.0 mi SSW 9.2 mph 18.4 mph N/A   Mostly Cloudy
7:50 PM 72.9 °F - 68.9 °F 87% 29.79 in 1.8 mi WNW 13.8 mph 27.6 mph 0.31 in Rain Heavy Rain
8:10 PM 71.4 °F - 68.5 °F 91% 29.80 in 3.0 mi WNW 5.8 mph - 0.19 in Rain Heavy Rain
8:30 PM 71.6 °F - 68.9 °F 91% 29.81 in 3.0 mi NW 5.8 mph - 0.40 in Rain Heavy Rain
8:50 PM 71.2 °F - 68.9 °F 92% 29.80 in 7.0 mi WNW 3.5 mph - 0.46 in Rain Light Rain
9:10 PM 71.4 °F - 68.9 °F 92% 29.82 in 10.0 mi Calm Calm - 0.01 in   Overcast
9:30 PM 71.6 °F - 69.1 °F 92% 29.83 in 10.0 mi Calm Calm - 0.01 in   Overcast
9:50 PM 71.8 °F - 69.4 °F 92% 29.83 in 10.0 mi WNW 3.5 mph - 0.01 in   Overcast
10:10 PM 71.6 °F - 69.3 °F 92% 29.84 in 10.0 mi Calm Calm - N/A   Overcast
10:30 PM 71.6 °F - 69.3 °F 92% 29.83 in 10.0 mi Calm Calm - N/A   Overcast
10:50 PM 71.6 °F - 69.1 °F 92% 29.84 in 10.0 mi Calm Calm - N/A   Mostly Cloudy
11:10 PM 71.6 °F - 69.3 °F 92% 29.86 in 10.0 mi West 3.5 mph - N/A   Overcast
11:30 PM 72.0 °F - 69.8 °F 93% 29.86 in 10.0 mi WNW 5.8 mph - N/A   Overcast
11:50 PM 72.0 °F - 68.9 °F 90% 29.86 in 10.0 mi NW 6.9 mph - N/A   Overcast